Starlink 11361

operational
NORAD ID: 61585 Int'l Des: 2024-187 Owner: SPXS Country: US Constellation: starlink
LEOCIRCULAR

关于 Starlink 11361

正在加载描述...

实时位置

正在加载3D地球...

即将过境

高度历史

Altitude vs Time

uPlot chart will show altitude changes over time

两行轨道根数

1 61585U 24187M 25353.37201184 .00197201 00000-0 15913-2 0 9992
2 61585 53.1573 332.3243 0001584 55.1280 304.9887 15.69754009 68133
Epoch: Dec 19, 2025 • Age: 23 hours

当前状态

高度 361.9 km
速度 7.69 km/s
星下点 -13.66°S, 111.44°E
发射日期 Oct 18, 2024
运行时间 1.1 years
类型 internet

技术详情

分类 Payload
质量 960.00 kg
干质量 910.00 kg
总质量 960.00 kg
长度 0.30 m
直径 4.10 m
跨度 29.00 m
形状 Box + pan
制造商 SPXS
平台类型 Starlink V2MD
阶段状态 In Orbit
所有者/国家 SPXS/US

大型星座

Loading constellations...